Regional Weather Roundup
Issued by NWS

Home | Current Version | Previous Version | Graphics & Text | Print | Product List | Glossary On
Versions: 1 2 3 4 5 6 7 8 9 10 11 12 13 14 15 16 17 18 19 20 21 22 23 24 25 26 27
000
ASUS45 KSLC 182010
RWRUT

UTAH REGIONAL WEATHER ROUNDUP
NATIONAL WEATHER SERVICE SALT LAKE CITY UT
200 PM MDT FRI AUG 18 2017

UTZ001>011-023>025-182100-

NORTHERN UTAH

CITY           SKY/WX    TMP DP  RH WIND       PRES   REMARKS
BRIGHAM CITY   SUNNY     86  25  11 SW3       30.15F
HILL AFB       SUNNY     84  35  17 SW5       30.18F
LOGAN          SUNNY     85  33  15 VRB6      30.14F
OGDEN          SUNNY     86  34  15 VRB6      30.14F
SALT LAKE CITY MOSUNNY   89  43  20 NW10G18   30.13F
TOOELE VALLEY  SUNNY     86  43  22 N9        30.15F
WENDOVER       SUNNY     87  36  16 E8        30.14F
HEBER CITY     SUNNY     88  32  13 SW13      30.19F
WEST JORDAN    SUNNY     86  55  34 N9G16     30.16F

$$

UTZ011>015-024>027-182100-

CENTRAL/NORTHEAST UTAH

CITY           SKY/WX    TMP DP  RH WIND       PRES   REMARKS
PROVO AIRPORT  SUNNY     87  52  29 W3        30.15F
MOAB/CANYONLAN SUNNY     94  31  10 VRB6      30.12F
DELTA          SUNNY     88  32  13 SW9       30.16F
PRICE          MOSUNNY   86  32  14 CALM      30.23S
ROOSEVELT      SUNNY     86  34  15 S3        30.21F
VERNAL         SUNNY     87  36  16 S9        30.20F

$$

UTZ013>016-019>022-027-182100-

SOUTHERN UTAH

CITY           SKY/WX    TMP DP  RH WIND       PRES   REMARKS
BRYCE CANYON   PTSUNNY   76  33  21 SW6       30.39F
CEDAR CITY     MOSUNNY   87  35  15 CALM      30.22F
MILFORD        SUNNY     92  33  12 S10       30.16F
ST GEORGE      CLEAR     95  42  16 SW5       30.03F HX  91
HANKSVILLE     SUNNY     95  32  11 SE7       30.15F HX  90
BLANDING       MOSUNNY   87  30  13 SE7G16    30.32F

$$

REGIONAL REPORTS     COLORADO/ARIZONA

CITY           SKY/WX    TMP DP  RH WIND       PRES   REMARKS
CRAIG, CO      SUNNY     85  27  12 MISG      30.26F
GRAND JUNCTION SUNNY     90  36  14 W12       30.15F
RIFLE, CO      SUNNY     90  28  11 W18       30.19F
MONTROSE, CO   SUNNY     86  33  15 VRB6      30.23F
CORTEZ, CO     SUNNY     88  28  11 VRB5      30.24F
COLORADO CITY    N/A     91  37  15 CALM      30.20F
PAGE, AZ       SUNNY     93  36  13 VRB5      30.11F
GRAND CANYON   PTSUNNY   82  34  17 E5        30.32F
KINGMAN, AZ    SUNNY     94  37  13 VRB5      30.08F
FLAGSTAFF, AZ  SUNNY     78  37  22 S10G21    30.35F

$$

REGIONAL REPORTS    NEVADA/IDAHO/WYOMING

CITY           SKY/WX    TMP DP  RH WIND       PRES   REMARKS
LAS VEGAS, NV  MOSUNNY  100  38  11 VRB3      29.98F HX  95
ELY, NY        MOSUNNY   85  29  13 N9        30.25F
ELKO, NV       SUNNY     89  22   8 SW10      30.19F
POCATELLO, ID  SUNNY     85  38  18 W18G24    30.15F
BURLEY, ID     SUNNY     81  41  24 W14       30.14S
FORT BRIDGER,    N/A     83  27  12 W18G25    30.33S
EVANSTON, WY   SUNNY     81  32  17 SW18G24   30.31F
ROCK SPRINGS,  SUNNY     80  29  15 W9G17     30.28F
KEMMERER, WY     N/A    N/A N/A N/A W23G31    30.32F

$$




USA.gov is the U.S. government's official web portal to all federal, state and local government web resources and services.